Flag for Italy Weather past 2 weeks in Modena, Italy

Now
88 °F

Sunny.


Feels Like: 90 °F
Forecast: 69 / 98 °F
Wind: 3 mph from North

Location: Bologna / Borgo Panigale

Current Time: Jul 4, 2015 at 12:39:58 PM

Latest Report: Jul 4, 2015 at 11:50 AM


Visibility: 10 mi

Pressure: 30.18 "Hg

Humidity: 49%

Dew point: 66 °F

Location of ModenaLocation

Historic Weather in Modena — Graph

°F

Modena temperature yesterday

Maximum temperature yesterday: 93 °F (at 4:20 PM)
Minimum temperature yesterday: 70 °F (at 5:20 AM)
Average temperature yesterday: 82 °F

Past Weeks' High & Low Weather Summary

 TemperatureHumidityPressure
High93 °F (Jul 2, 4:50 PM)100% (Jun 24, 6:20 AM)30.24 "Hg (Jun 24, 6:20 AM)
Low57 °F (Jun 24, 6:20 AM)31% (Jun 23, 2:20 PM)29.71 "Hg (Jun 23, 4:50 PM)
Average74 °F61%30.05 "Hg
* Reported Jun 19 11:20 AM — Jul 4 11:20 AM, Modena, Weather by CustomWeather, © 2015

Note: Actual official high and low records may vary slightly from our data, if they occured in-between our weather recording intervals... More about our weather records

Advertising

Modena weather history for previous 24 hours

 ConditionsComfort  
Time TempWeatherWind HumidityBarometerVisibility
11:20 AM
Sat, Jul 4
88 °FSunny.2 mph55%30.21 "Hg10 mi
10:50 AM88 °FSunny.2 mph52%30.21 "Hg10 mi
10:20 AM86 °FPassing clouds.5 mph52%30.21 "HgN/A
9:50 AM82 °FPassing clouds.5 mph55%30.21 "HgN/A
9:20 AM82 °FPassing clouds.5 mph55%30.21 "HgN/A
8:50 AM81 °FSunny.2 mph62%30.21 "Hg10 mi
8:20 AM79 °FPassing clouds.3 mph65%30.21 "HgN/A
7:50 AM77 °FSunny.5 mph69%30.21 "Hg10 mi
7:20 AM75 °FPassing clouds.6 mph74%30.21 "HgN/A
6:50 AM73 °FPassing clouds.5 mph74%30.21 "HgN/A
6:20 AM72 °FClear.6 mph78%30.21 "Hg10 mi
5:50 AM72 °FPassing clouds.7 mph78%30.21 "HgN/A
4:50 AM72 °FClear.3 mph78%30.21 "Hg10 mi
4:20 AM72 °FClear.5 mph78%30.21 "Hg10 mi
3:20 AM75 °FClear.3 mph69%30.21 "Hg10 mi
2:50 AM75 °FClear.5 mph69%30.21 "Hg10 mi
2:20 AM75 °FClear.3 mph69%30.21 "Hg10 mi
1:50 AM75 °FClear.No wind69%30.24 "Hg10 mi
1:20 AM77 °FPassing clouds.3 mph65%30.24 "HgN/A
12:50 AM77 °FClear.6 mph65%30.24 "Hg10 mi
12:20 AM77 °FClear.3 mph61%30.24 "Hg10 mi
11:50 PM
Fri, Jul 3
77 °FPassing clouds.3 mph61%30.24 "HgN/A
11:20 PM79 °FPassing clouds.6 mph61%30.24 "HgN/A
10:50 PM81 °FClear.5 mph58%30.24 "Hg10 mi
10:20 PM82 °FClear.5 mph51%30.24 "Hg10 mi
9:50 PM82 °FSunny.5 mph55%30.24 "Hg10 mi
9:20 PM84 °FPassing clouds.6 mph48%30.21 "HgN/A
8:50 PM86 °FSunny.10 mph46%30.21 "Hg10 mi
8:20 PM86 °FSunny.8 mph43%30.24 "Hg10 mi
7:50 PM84 °FSunny.7 mph51%30.24 "Hg10 mi
7:20 PM90 °FPassing clouds.8 mph41%30.24 "HgN/A
6:50 PM90 °FPassing clouds.9 mph41%30.24 "HgN/A
6:20 PM91 °FSunny.12 mph41%30.24 "Hg10 mi
5:50 PM91 °FSunny.12 mph41%30.24 "Hg10 mi
5:20 PM91 °FPassing clouds.8 mph41%30.21 "HgN/A
4:50 PM91 °FPassing clouds.9 mph38%30.21 "HgN/A
4:20 PM93 °FPassing clouds.7 mph39%30.21 "HgN/A
3:50 PM91 °FPassing clouds.7 mph38%30.21 "HgN/A
3:20 PM91 °FPassing clouds.7 mph41%30.21 "HgN/A
2:50 PM91 °FSunny.6 mph41%30.21 "Hg10 mi
2:20 PM91 °FSunny.6 mph38%30.21 "Hg10 mi
1:50 PM91 °FSunny.5 mph36%30.24 "Hg10 mi
1:20 PM91 °FPassing clouds.5 mph38%30.24 "HgN/A
12:50 PM90 °FPassing clouds.5 mph41%30.24 "HgN/A
12:20 PM90 °FSunny.2 mph43%30.24 "Hg10 mi
Weather by CustomWeather, © 2015

See weather overviewHow to use our weather pages